Location: Lussas
(44.6119°N, 4.4726°E)
Time: 16:25:07
(UTC+00:00)

Nadezhda 1 Rocket - Pass Details

Date: 26 November 2020
Orbit: 940 x 1006 km, 83.0° (Epoch: 28 January)

Event Time Altitude Azimuth Distance (km) Brightness Sun altitude
Exits shadow 04:29:02 54° 303° (WNW) 1,202 4.1 -25.2°
Maximum altitude 04:29:59 59° 268° (W) 1,136 4.0 -25.0°
Drops below altitude 10° 04:36:07 10° 190° (S) 2,727 6.3 -23.9°
Sets 04:38:37 0° 187° (S) 3,661 7.0 -23.5°
